Location: Unspecified
(22.6800°N, 112.2000°E)
Time: 19:12:29
(UTC+08:00)

Vanguard 3 - Visible Passes

Search period start: 03 August 2021 00:00
Search period end: 13 August 2021 00:00
Orbit: 508 x 3261 km, 33.4° (Epoch: 02 August)

Date Brightness Start Highest point End Pass type
(mag) Time Alt. Az. Time Alt. Az. Time Alt. Az.
03 Aug 10.8 01:27:06 10° WNW 01:34:10 25° W 01:34:10 25° W visible
03 Aug 10.4 19:35:27 10° WNW 19:51:13 59° N 20:11:01 10° ENE visible
03 Aug 10.0 21:51:23 10° WNW 22:10:53 73° NNE 22:18:49 46° E visible
04 Aug 10.1 00:08:34 10° WNW 00:23:17 53° W 00:23:17 53° W visible
04 Aug 10.3 20:34:55 10° WNW 20:52:26 64° NNE 21:07:58 20° E visible
04 Aug 9.7 22:51:03 10° WNW 23:11:13 87° SSW 23:12:27 82° SE visible
05 Aug 10.8 01:09:40 10° WNW 01:16:55 25° W 01:16:55 25° W visible
05 Aug 10.4 19:19:03 10° WNW 19:34:01 58° N 19:53:50 10° E visible
05 Aug 10.0 21:34:19 10° WNW 21:53:19 77° NNE 22:01:39 46° E visible
05 Aug 10.1 23:51:05 10° WNW 00:06:08 52° WSW 00:06:08 52° WSW visible
06 Aug 10.2 20:18:13 10° WNW 20:35:02 66° NNE 20:50:54 20° E visible
06 Aug 9.7 22:33:46 10° WNW 22:53:30 81° SSW 22:55:23 76° SSE visible
07 Aug 10.9 00:52:23 10° WNW 00:59:52 24° W 00:59:52 24° W visible
07 Aug 10.3 19:02:40 10° WNW 19:16:52 58° N 19:36:34 10° E visible
07 Aug 10.0 21:17:20 10° WNW 21:35:42 81° NNE 21:44:42 44° ESE visible
07 Aug 10.2 23:33:46 10° WNW 23:49:11 51° WSW 23:49:11 51° WSW visible
08 Aug 10.1 20:01:35 10° WNW 20:17:38 68° NNE 20:34:04 19° E visible
08 Aug 9.8 22:16:36 10° WNW 22:35:44 75° SSW 22:38:34 69° SSE visible
09 Aug 10.9 00:35:18 10° W 00:43:03 24° W 00:43:03 24° W visible
09 Aug 10.0 21:00:27 10° WNW 21:18:03 86° NNE 21:28:00 41° ESE visible
09 Aug 10.3 23:16:36 10° WNW 23:32:29 48° WSW 23:32:29 48° WSW visible
10 Aug 10.1 19:45:01 10° WNW 20:00:14 71° NNE 20:17:29 17° ESE visible
10 Aug 9.9 21:59:34 10° WNW 22:17:55 69° SW 22:21:59 60° SSE visible
11 Aug 11.0 00:18:28 10° W 00:26:29 23° WSW 00:26:29 23° WSW visible
11 Aug 9.9 20:43:39 10° WNW 21:00:23 88° SSW 21:11:33 37° ESE visible
11 Aug 10.3 22:59:37 10° WNW 23:16:03 45° SW 23:16:03 45° SW visible
12 Aug 10.0 19:28:29 10° WNW 19:42:50 75° NNE 20:01:10 14° ESE visible
12 Aug 10.0 21:42:41 10° WNW 22:00:08 63° SW 22:05:41 51° SSE visible
